Location: Gebenbach
(49.5378°N, 11.8735°E)
Time: 11:38:39
(UTC+00:00)

CSL-04 Rocket - Pass Details

Date: 29 October 2020
Orbit: 805 x 861 km, 98.9° (Epoch: 24 November)

Event Time Altitude Azimuth Distance (km) Brightness Sun altitude
Exits shadow 18:34:12 - 179° (S) 3,267 6.7 -26.3°
Reaches altitude 10° 18:36:14 10° 183° (S) 2,488 6.1 -26.6°
Maximum altitude 18:41:38 52° 260° (W) 1,054 4.4 -27.5°
Drops below altitude 10° 18:47:01 10° 336° (NNW) 2,482 6.5 -28.3°
Sets 18:49:27 0° 342° (NNW) 3,414 7.3 -28.7°
